Location: ??????
(42.0089°N, 44.3281°E)
Time: 17:21:11
(UTC+00:00)

Cosmos 220 Rocket - Pass Details

Date: 07 June 2022
Orbit: 572 x 614 km, 74.0° (Epoch: 30 June)

Event Time Altitude Azimuth Distance (km) Brightness Sun altitude
Exits shadow 17:51:28 17° 150° (SSE) 1,496 5.4 -11.7°
Maximum altitude 17:53:53 28° 101° (ESE) 1,085 4.9 -12.0°
Drops below altitude 10° 17:57:29 10° 42° (NE) 1,889 6.6 -12.5°
Sets 17:59:55 0° 31° (NNE) 2,796 7.6 -12.8°
